Regional Weather Roundup
Issued by NWS

Home | Current Version | Previous Version | Text Only | Print | Product List | Glossary Off
Versions: 1 2 3 4 5 6 7 8 9 10 11 12 13 14 15 16 17 18 19 20 21 22 23 24 25 26 27 28 29 30 31 32 33 34 35 36 37 38 39 40 41 42 43 44 45 46 47 48 49 50

000
ASUS43 KDMX 141408
RWRIA

WEATHER ROUNDUP FOR IOWA
NATIONAL WEATHER SERVICE DES MOINES IA
800 AM CST SUN FEB 14 2016

NOTE: "FAIR" INDICATES FEW OR NO CLOUDS BELOW 12,000 FEET WITH NO
SIGNIFICANT WEATHER AND/OR OBSTRUCTIONS TO VISIBILITY.

* - THESE STATIONS ARE NOT NWS STATIONS...THUS NOT UNDER NWS
QUALITY CONTROL.  THEY ALSO DO NOT REPORT WEATHER SUCH
AS PRECIPITATION OR FOG.

IAZ001>003-012>014-020>022-031>034-043>046-141500-
   NORTHWEST IOWA

CITY           SKY/WX    TMP DP  RH WIND       PRES   REMARKS
CARROLL *      CLOUDY    16  14  93 SE15      29.94S FOG     WCI   1
CHEROKEE *     FLURRIES  16  14  93 SE12      29.91F WCI   3
DENISON *      FLURRIES  18  14  86 SE14      29.89F WCI   4
LE MARS *      CLOUDY    18  16  93 SE10G17   29.89F WCI   6
ORANGE CITY *  CLOUDY    16  14  93 SE7       29.87F WCI   6
SHELDON *      CLOUDY    14  12  92 SE16      29.88F WCI  -2
SIOUX CITY     CLOUDY    19  13  77 SE12      29.89F WCI   7
SPENCER        LGT SNOW  14   9  80 SE17      29.93S VSB 3/4 WCI  -3
STORM LAKE *   LGT SNOW  14  14 100 SE18      29.91S WCI  -3
$$

IAZ055>058-069>071-079>083-090>094-141500-
   SOUTHWEST IOWA

CITY           SKY/WX    TMP DP  RH WIND       PRES   REMARKS
ATLANTIC *     LGT SNOW  19  16  86 S12       29.94S WCI   7
AUDUBON *      CLOUDY    18  12  79 S10       29.93F WCI   6
CLARINDA *     CLOUDY    23  14  68 S12       29.96F WCI  12
COUNCIL BLFS * CLOUDY    21  12  68 S13G18    29.90F WCI   9
CRESTON *      FLURRIES  18  14  86 SE16G23   29.96S WCI   3
HARLAN  *      CLOUDY    18  16  93 S12       29.95F WCI   5
LAMONI         CLOUDY    18  14  84 SE16G24   29.97F WCI   3
RED OAK *      CLOUDY    21  14  73 S7        29.95S WCI  13
SHENANDOAH *   CLOUDY    25   9  50 S14       29.96R WCI  13
$$

IAZ047>049-059>061-072>074-084-141500-
   CENTRAL IOWA

CITY           SKY/WX    TMP DP  RH WIND       PRES   REMARKS
AMES           CLOUDY    16  12  84 SE16      30.01F WCI   1
ANKENY *       CLOUDY    16  14  93 SE10G17   30.03R WCI   3
BOONE *        CLOUDY    16  12  86 SE17      29.98R FOG     WCI   0
CHARITON *     FLURRIES  18  14  86 SE12G18   30.00F WCI   5
DES MOINES     LGT SNOW  18  13  80 SE13      30.02S VSB 3/4 WCI   5
GRINNELL*      LGT SNOW  16  14  93 SE16      30.04F WCI   0
KNOXVILLE *    LGT SNOW  18  12  79 SE12G18   30.02F WCI   5
MARSHALLTOWN   LGT SNOW  16  12  84 SE20      30.03F VSB 1   WCI  -1
NEWTON *       SNOW      16  16 100 SE17G24   30.03F VSB 1/4 WCI   0
PELLA *        SNOW      18  14  86 SE14      30.06S VSB 1/2 WCI   4
$$

IAZ004>006-015-016-023>025-035-036-141500-
   NORTH CENTRAL IOWA

CITY           SKY/WX    TMP DP  RH WIND       PRES   REMARKS
ALGONA *       CLOUDY    16  12  86 SE18      29.96F FOG     WCI  -1
CLARION *      FOG       16  12  86 SE23      29.98F VSB 1/2 WCI  -2
ESTHERVILLE    FOG       13  11  92 SE20      29.94F VSB 1/2 WCI  -5
FORT DODGE *   CLOUDY    16  10  79 SE9G17    29.98F WCI   4
MASON CITY     SNOW      14  11  87 SE20      30.02F VSB 1/2 WCI  -3
FOREST CITY *  LGT SNOW  16  12  86 SE16G22   29.99F WCI   0
WEBSTER CITY * LGT SNOW  16  12  86 SE20G26   29.97S VSB 3/4 WCI  -1
IOWA FALLS *   LGT SNOW  16  14  93 SE18      30.01F VSB 3/4 WCI  -1
$$

IAZ007>011-017>019-026>030-037>042-050>054-066-141500-
   NORTHEAST IOWA

CITY           SKY/WX    TMP DP  RH WIND       PRES   REMARKS
CEDAR RAPIDS   LGT SNOW  16  13  88 SE16      30.09F VSB 3/4 WCI   1
CHARLES CITY * LGT SNOW  14  12  92 SE18G24   30.06R WCI  -3
CLINTON *      FLURRIES  16   9  74 SE20G28   30.17F WCI  -1
DUBUQUE        CLOUDY    14   8  77 SE20      30.13F WCI  -3
MONTICELLO *   LGT SNOW  16   9  73 SE15G23   30.13F WCI   1
OELWEIN *      CLOUDY    14  10  85 SE18      30.09S HAZE    WCI  -3
WATERLOO       LGT SNOW  16  12  84 SE10      30.08S VSB 1   WCI   4
$$

IAZ064-065-067-068-078-141500-
   EAST CENTRAL IOWA

CITY           SKY/WX    TMP DP  RH WIND       PRES   REMARKS
DAVENPORT      CLOUDY    17  10  74 SE18G30   30.16F WCI   1
IOWA CITY      LGT SNOW  17  13  84 SE13      30.15S FOG     WCI   4
MT. PLEASANT * SNOW      19  16  86 SE15      30.14R VSB 1/2 WCI   5
MUSCATINE *    LGT SNOW  18  14  86 SE12G21   30.17R VSB 1   WCI   5
QUAD CITIES    CLOUDY    17  11  77 SE14      30.18F WCI   3
$$

IAZ062-063-075>077-085>089-095>099-141500-
   SOUTHEAST IOWA

CITY           SKY/WX    TMP DP  RH WIND       PRES   REMARKS
BURLINGTON     LGT SNOW  16  13  88 SE14      30.16R FOG     WCI   2
FAIRFIELD *    SNOW      18  12  79 SE13      30.11S VSB 1/2 WCI   4
FORT MADISON * LGT SNOW  18  14  86 SE8       30.17R WCI   7
KEOKUK *       SNOW      19  16  86 SE13      30.11F VSB 1/4 WCI   7
OSKALOOSA *    LGT SNOW  16  14  93 SE15      30.07F WCI   1
CENTERVILLE *  FLURRIES  18  16  93 SE16      30.03F WCI   3
OTTUMWA        LGT SNOW  17  15  92 SE14      30.07S VSB 3/4 WCI   3
WASHINGTON *   SNOW      16  14  93 SE18      30.13S VSB 1/4 WCI  -1
$$

ABBREVIATIONS USED IN REMARKS
   TC - TEMPERATURES IN CELSIUS
  WCI - WIND CHILL INDEX
   HX - HEAT INDEX
  VSB - VISIBILITY
$$




USA.gov is the U.S. government's official web portal to all federal, state and local government web resources and services.